OBJECT C, 59679

Orbit data source: Space-Track

You're viewing an Uncataloged Satellite

Recently launched and/or uncataloged satellites may have evolving metadata. Metadata may include but not limited to: Owner, Maufacturer, Bus, Motor, and Mission.

OBJECT C, 59679 is a satellite owned by Harbin (CN) in SSO that was launched on Tue, 07 May 2024 UTC via a CHANG ZHENG 6C launch vehicle from the Taiyaun Space Center, China (TSC). Unknown objects in Earth's orbit typically refer to objects detected orbiting the Earth but have not yet been identified or cataloged. These objects could be anything from previously untracked satellites, spent rocket stages, debris from satellite collisions, or even natural meteoroids temporarily captured by Earth's gravity.

Loading next visibility...
Identifier
59679, 2024-085C
Orbit
SSO
Country
Flag of CNCN / PRC
Related business
Manufacturer
HITSAT/DFH
Mission
Operational Commercial Imaging
Bus & Motor
WSX, Unknown motor
Mass
~50 kg wet, ~50 kg dry
Launch date (UTC)
2024-05-07 (2 years ago)
Launch vehicle
CHANG ZHENG 6C
Launch site
Taiyaun Space Center, China (TSC)
Object type
Unknown
Shape & HBR
Box + 2 Pan, 0.5 m
Radar Cross Section
0.255 m², Medium (>0.1 m² and < 1m²)

Expand to show TLE details & history
Last TLE update: 22 hours ago

TLE from 22 hours ago
0 OBJECT C
1 59679U 24085C   26172.54570302  .00008356  00000-0  25417-3 0  9993
2 59679  97.3286 248.3888 0026846  27.7354 332.5313 15.33920725118319
Epoch: 2026-06-21T13:05Z
TLE epoch observation values (Epoch: 2026-06-21T13:05:48.740Z)
Latitude
-0.00013°
Longitude
142.1913°
Altitude
450.949 km
Speed
7.651 km/s
True Right ascension
16h 33m 33s
True Declination
0° 00' 00"
Sunlit
Object was in full shadow at epoch
Visualization orbit readout
Latitude
Unknown
Longitude
Unknown
Altitude
Unknown
Speed
Unknown
Apparent Right ascension
Unknown
Apparent Declination
Unknown
Sunlit
N/A
Visualization observer readout
Local Sidereal Time
21:37:51
Azimuth
Unknown
Elevation
Unknown
Doppler factor
Unknown
Orbital elements
Apogee altitude
479.433 km
Perigee altitude
442.712 km
Semi-major axis
6,839.209 km
Eccentricity
0.00268
Inclination
97.3286°
RAAN
248.3888°
Arg. of periapsis
27.7354°
True anomaly
332.38898°
Mean anomaly
332.5313°
Eccentric anomaly
332.46018°
Mean motion
3.83738 °/min
Orbital period
93.81 mins
BSTAR
0.00025417
Loading maneuver chart data...
Computing Atmospheric mass density...
Loading historical data...
Loading historical data...
Loading historical data...
Loading historical data...
Loading historical data...
Loading historical data...
Loading historical data...

Documentation

Showing up to 5 results
|